Location: Newark
(26.2500°N, 17.3000°E)
Time: 09:27:53
(UTC+00:00)

OTV 5 (USA 277) - Visible Passes

Search period start: 24 September 2019 00:00
Search period end: 04 October 2019 00:00
Orbit: 295 x 339 km, 54.5° (Epoch: 08 September)

Date Brightness Start Highest point End Pass type
(mag) Time Alt. Az. Time Alt. Az. Time Alt. Az.
27 Sep ? 04:07:56 10° S 04:10:21 25° SE 04:12:45 10° ENE visible
29 Sep ? 03:04:13 12° SE 03:05:15 13° ESE 03:06:46 10° E visible
30 Sep ? 03:19:28 50° SE 03:19:39 51° SE 03:22:25 10° NE visible
01 Oct ? 03:34:31 32° NNW 03:34:31 32° NNW 03:36:47 10° NNE visible
02 Oct ? 03:49:21 11° NNW 03:49:21 11° NNW 03:49:46 10° NNW visible
